Regional Weather Roundup
Issued by NWS

Home | Current Version | Previous Version | Graphics & Text | Print | Product List | Glossary On
Versions: 1 2 3 4 5 6 7 8 9 10 11 12 13 14 15 16 17 18 19 20 21 22 23 24 25 26 27 28 29 30 31 32 33 34 35 36 37 38 39 40 41 42 43 44 45 46 47 48 49 50
000
ASUS43 KLMK 231710
RWRKY
KENTUCKY REGIONAL WEATHER ROUNDUP
NATIONAL WEATHER SERVICE LOUISVILLE KY
100 PM EDT WED JUL 23 2014

NOTE "FAIR" INDICATES FEW OR NO CLOUDS BELOW 12,000 FEET
WITH NO SIGNIFICANT WEATHER AND/OR OBSTRUCTIONS TO VISIBILITY.

KYZ001>023-026-027-061>063-070>075-231800-
WESTERN AND SOUTH CENTRAL KENTUCKY

CITY           SKY/WX    TMP DP  RH WIND       PRES   REMARKS
PADUCAH        LGT RAIN  75  71  87 E6        30.07F FOG
HENDERSON      CLOUDY    72  66  83 CALM      30.01F
OWENSBORO      LGT RAIN  77  74  90 S21       29.98F
HOPKINSVILLE   PTSUNNY   85  73  65 SW8       30.07F HX  91
BOWLING GREEN  CLOUDY    88  71  57 VRB3      30.06F HX  94
GLASGOW        PTSUNNY   86  70  57 SW3       30.06F HX  91
$$

KYZ024-025-028>034-038-045-046-053-231800-
NORTH CENTRAL KENTUCKY

CITY           SKY/WX    TMP DP  RH WIND       PRES   REMARKS
LOUISVILLE/SDF LGT RAIN  82  72  71 SW7       30.02F
LOUISVILLE/LOU CLOUDY    82  71  69 VRB6      30.03F
FORT KNOX      CLOUDY    82  73  73 S10       30.00F
$$

KYZ035>037-039>044-047>052-055>060-089>105-231800-
NORTHEAST KENTUCKY

CITY           SKY/WX    TMP DP  RH WIND       PRES   REMARKS
LEXINGTON      PTSUNNY   82  68  62 W15       30.07F THUNDER
COVINGTON      LGT RAIN  69  65  86 CALM      30.08F FOG
FRANKFORT      LGT RAIN  73  70  90 CALM      30.04F
$$

KYZ054-064>069-076>088-106>120-231800-
SOUTHEAST KENTUCKY

CITY           SKY/WX    TMP DP  RH WIND       PRES   REMARKS
JACKSON        MOSUNNY   84  70  62 CALM      30.08F
LONDON         PTSUNNY   87  72  60 W12       30.08F HX  93
SOMERSET       MOSUNNY   86  70  58 W6        30.07F HX  90
MIDDLESBORO    PTSUNNY   85  73  69 S6        30.08F HX  91
MONTICELLO     SUNNY     89  73  59 W6        30.08F HX  96
$$



USA.gov is the U.S. government's official web portal to all federal, state and local government web resources and services.